Regional Weather Roundup
Issued by NWS Huntsville, AL

Home | Current Version | Previous Version | Text Only | Print | Product List | Glossary On
Versions: 1 2 3 4 5 6 7 8 9 10 11 12 13 14 15 16 17 18 19 20 21 22 23 24 25 26 27 28 29 30 31 32 33 34 35 36 37 38 39 40 41 42 43 44 45 46 47 48 49 50
000
ASUS44 KHUN 291210
RWRHUN

WEATHER ROUNDUP FOR THE TENNESSEE VALLEY
NATIONAL WEATHER SERVICE HUNTSVILLE AL
700 AM CDT FRI AUG 29 2014

ALZ001>004-291300-
NORTHWEST ALABAMA

CITY           SKY/WX    TMP DP  RH WIND       PRES   REMARKS
COURTLAND HCN    N/A     70 N/A N/A CALM        N/A
RUSSELLVILLE     N/A     64 N/A N/A MISG        N/A
SHOALS AIRPORT CLEAR     67  64  90 CALM      30.03R
6HR MIN TEMP:  65; 6HR MAX TEMP:  71;

SHOALS TVA RES   N/A     64 N/A N/A MISG        N/A
$$

ALZ005>007-016-291300-
NORTH CENTRAL ALABAMA

CITY           SKY/WX    TMP DP  RH WIND       PRES   REMARKS
DECATUR AP     CLEAR     68  65  90 E5        30.05R
6HR MIN TEMP:  65; 6HR MAX TEMP:  70;

HUNTSVILLE AP  PTCLDY    70  66  87 SE3       30.05R
6HR MIN TEMP:  69; 6HR MAX TEMP:  74;

HUN NWS/UAH      N/A     72  65  77 E1          N/A
MERIDIANVILLE  CLEAR     63  61  94 CALM      30.06R
VINEMONT AP    FAIR      61  60  96 CALM      30.08R
$$

ALZ008>010-291300-
NORTHEAST ALABAMA

CITY           SKY/WX    TMP DP  RH WIND       PRES   REMARKS
ALBERTVILLE    CLEAR     68  63  83 SE6       30.07R
FORT PAYNE     CLEAR     61  55  82 CALM      30.07R
SCOTTSBORO AP  FOG       66  66 100 CALM      30.07R VSB<1/4
SCOTTSBORO HCN   N/A     66 N/A N/A MISG        N/A
VALLEY HEAD      N/A     59 N/A N/A MISG        N/A
$$

TNZ076-096-097-291300-
SOUTHEASTERN MIDDLE TENNESSEE

CITY           SKY/WX    TMP DP  RH WIND       PRES   REMARKS
FAYETTEVILLE   CLEAR     68  61  77 S5        30.06R
TULLAHOMA      CLEAR     64  61  88 CALM      30.08R
WINCHESTER     CLEAR     68  63  83 CALM      30.07S
$$

...SURROUNDING SITES...

CITY           SKY/WX    TMP DP  RH WIND       PRES   REMARKS
ATLANTA        PTCLDY    70  60  70 E3        30.08R
ANNISTON       CLEAR     65  62  90 CALM      30.07R
BIRMINGHAM     MOCLDY    68  61  78 CALM      30.06R
CHATTANOOGA    PTCLDY    68  63  84 CALM      30.08R
CORINTH        FAIR      70  68  94 CALM      30.00R FOG
DALTON         CLEAR     63  63 100 CALM      30.09R
GADSDEN        CLEAR     61  57  88 CALM      30.06R
GOLDEN TRNGL   CLEAR     72  64  78 SE7       30.01R
HALEYVILLE     FAIR      65  62  90 CALM      30.07R
JACKSON TN     CLEAR     69  67  93 SE6       29.99R
LEWISBURG      FAIR      62  61  97 CALM      30.04R
MEMPHIS        PTCLDY    74  66  76 S3        29.97R
MURFREESBORO   FAIR      70  67  90 CALM      30.03R
NASHVILLE      PTCLDY    72  69  90 S3        30.04R
ROME           CLEAR     63  62  97 CALM      30.07R
SAVANNAH       PTCLDY    68  68 100 CALM      30.01R
TUPELO         PTCLDY    71  65  81 S3        30.00R
TUSCALOOSA     CLEAR     66  64  93 CALM      30.02R
$$

...GULF COAST WEATHER...

CITY           SKY/WX    TMP DP  RH WIND       PRES   REMARKS
GULFPORT       CLEAR     75  71  87 N3        29.96S
PASCAGOULA     CLEAR     72  71  97 CALM      29.97R FOG
MOBILE         MOCLDY    72  72 100 NE3       29.99R
GULF SHORES    SUNNY     73  72  94 CALM      29.97R
PENSACOLA      MOCLDY    77  73  87 NE7       29.98R
DESTIN         PTCLDY    79  74  84 E7        30.00R
PANAMA CITY    CLEAR     74  70  87 NE3       30.02R
APPALACHICOLA  PTCLDY    74  70  87 NE6       30.00R
$$



USA.gov is the U.S. government's official web portal to all federal, state and local government web resources and services.